Burnet, TX

1:30 PM CDT on September 29, 2016 (GMT -0500)
Burnet Municipal-Craddock

Weather History for KBMQ - September, 2013

Change the Weather History Date:

Wednesday, September 11, 2013

  Actual Average Record
Temperature  
Mean Temperature 82 °F -  
Max Temperature 91 °F 87 °F 100 °F (2011)
Min Temperature 72 °F 67 °F 64 °F (2012)
Cooling Degree Days 16    
Growing Degree Days 32 (Base 50)    
Moisture  
Dew Point 67 °F    
Average Humidity 71    
Maximum Humidity 93    
Minimum Humidity 35    
Precipitation  
Precipitation 0.00 in - - ()
Sea Level Pressure  
Sea Level Pressure 30.08 in    
Wind  
Wind Speed 4 mph (ESE)    
Max Wind Speed 13 mph    
Max Gust Speed 18 mph    
Visibility 9 miles    
Events      
Averages and records for this station are not official NWS values.
T = Trace of Precipitation, MM = Missing Value Source: NWS Daily Summary

Daily Weather History Graph

Daily Weather History Graph

Search for Another Location

Airport or City:

Trip Planner

Search our weather history database for the weather conditions in past years. The results will help you decide how hot, cold, wet, or windy it might be!

Date:

Astronomy

Sep. 11, 2013 Rise Set
Actual Time 7:15 AM CDT 7:43 PM CDT
Civil Twilight 6:50 AM CDT 8:07 PM CDT
Nautical Twilight 6:22 AM CDT 8:35 PM CDT
Astronomical Twilight 5:53 AM CDT 9:04 PM CDT
Moon 1:19 PM CDT (9/11) No Moon Set
Length of Visible Light 13h 16m
Length of Day
12h 28m
Waxing Crescent, 39% of the Moon is Illuminated
Sep 11
Waxing Crescent
Sep 12
First Quarter
Sep 19
Full
Sep 26
Last Quarter
Oct 4
New

Hourly Weather History & Observations

Time (CDT) Temp. Heat Index Dew Point Humidity Pressure Visibility Wind Dir Wind Speed Gust Speed Precip Events Conditions
12:53 AM 75.0 °F - 68.0 °F 79% 30.06 in 10.0 mi Calm Calm - N/A   Partly Cloudy
1:12 AM 75.0 °F - 68.0 °F 79% 30.11 in 10.0 mi Calm Calm - N/A   Mostly Cloudy
1:48 AM 75.2 °F - 69.8 °F 83% 30.11 in 10.0 mi Calm Calm - N/A   Partly Cloudy
1:53 AM 75.0 °F - 69.1 °F 82% 30.06 in 10.0 mi SE 3.5 mph - N/A   Partly Cloudy
2:37 AM 75.0 °F - 69.1 °F 82% 30.12 in 10.0 mi Calm Calm - N/A   Mostly Cloudy
2:46 AM 73.9 °F - 69.1 °F 85% 30.11 in 10.0 mi Calm Calm - N/A   Scattered Clouds
2:53 AM 75.0 °F - 69.1 °F 82% 30.06 in 10.0 mi ESE 3.5 mph - N/A   Scattered Clouds
3:42 AM 73.9 °F - 69.1 °F 85% 30.11 in 10.0 mi East 3.5 mph - N/A   Mostly Cloudy
3:53 AM 73.9 °F - 69.1 °F 85% 30.06 in 10.0 mi ENE 4.6 mph - N/A   Overcast
4:16 AM 73.9 °F - 69.1 °F 85% 30.11 in 10.0 mi East 3.5 mph - N/A   Mostly Cloudy
4:43 AM 73.0 °F - 69.1 °F 87% 30.11 in 10.0 mi ENE 3.5 mph - N/A   Mostly Cloudy
4:53 AM 73.0 °F - 69.1 °F 87% 30.05 in 10.0 mi ENE 3.5 mph - N/A   Mostly Cloudy
5:42 AM 73.9 °F - 70.0 °F 87% 30.10 in 9.0 mi East 3.5 mph - N/A   Mostly Cloudy
5:53 AM 73.0 °F - 70.0 °F 90% 30.05 in 9.0 mi East 4.6 mph - N/A   Overcast
6:32 AM 73.0 °F - 70.0 °F 90% 30.12 in 8.0 mi East 3.5 mph - N/A   Scattered Clouds
6:53 AM 73.0 °F - 70.0 °F 90% 30.06 in 7.0 mi East 3.5 mph - N/A   Partly Cloudy
7:20 AM 72.0 °F - 70.0 °F 93% 30.12 in 6.0 mi East 4.6 mph - N/A   Mostly Cloudy
7:32 AM 72.0 °F - 70.0 °F 93% 30.12 in 5.0 mi East 5.8 mph - N/A   Scattered Clouds
7:53 AM 73.0 °F - 70.0 °F 90% 30.07 in 4.0 mi East 5.8 mph - N/A   Mostly Cloudy
8:01 AM 73.0 °F - 70.0 °F 90% 30.13 in 4.0 mi East 5.8 mph - N/A   Mostly Cloudy
8:12 AM 73.0 °F - 71.1 °F 93% 30.13 in 4.0 mi ESE 5.8 mph - N/A   Overcast
8:48 AM 75.2 °F - 71.6 °F 89% 30.15 in 7.0 mi ESE 8.1 mph - N/A   Mostly Cloudy
8:53 AM 75.9 °F - 71.1 °F 85% 30.10 in 8.0 mi ESE 6.9 mph - N/A   Mostly Cloudy
9:23 AM 78.1 °F - 70.0 °F 76% 30.15 in 9.0 mi SE 6.9 mph - N/A   Scattered Clouds
9:49 AM 80.6 °F 83.9 °F 69.8 °F 70% 30.16 in 10.0 mi East 9.2 mph - N/A   Mostly Cloudy
9:53 AM 79.0 °F - 69.1 °F 72% 30.11 in 10.0 mi ESE 8.1 mph - N/A   Mostly Cloudy
10:17 AM 79.0 °F - 70.0 °F 74% 30.16 in 10.0 mi SE 5.8 mph - N/A   Mostly Cloudy
10:30 AM 81.0 °F 84.1 °F 69.1 °F 67% 30.16 in 10.0 mi ESE 8.1 mph - N/A   Mostly Cloudy
10:40 AM 82.0 °F 85.5 °F 69.1 °F 65% 30.16 in 10.0 mi Variable 6.9 mph - N/A   Mostly Cloudy
10:53 AM 81.0 °F 83.8 °F 68.0 °F 65% 30.11 in 10.0 mi ESE 5.8 mph - N/A   Scattered Clouds
11:53 AM 86.0 °F 87.6 °F 64.9 °F 49% 30.10 in 10.0 mi Variable 6.9 mph - N/A   Scattered Clouds
12:53 PM 86.0 °F 86.8 °F 63.0 °F 46% 30.09 in 10.0 mi East 9.2 mph - N/A   Scattered Clouds
1:53 PM 88.0 °F 88.4 °F 62.1 °F 42% 30.06 in 10.0 mi East 8.1 mph - N/A   Clear
2:53 PM 89.1 °F 90.0 °F 63.0 °F 42% 30.04 in 10.0 mi SE 9.2 mph - N/A   Partly Cloudy
3:53 PM 90.0 °F 90.0 °F 61.0 °F 38% 30.01 in 10.0 mi SE 12.7 mph 18.4 mph N/A   Scattered Clouds
4:53 PM 91.0 °F 90.5 °F 60.1 °F 35% 30.00 in 10.0 mi SE 9.2 mph - N/A   Clear
5:53 PM 88.0 °F 87.6 °F 60.1 °F 39% 30.00 in 10.0 mi SE 6.9 mph - N/A   Clear
6:53 PM 89.1 °F 88.2 °F 59.0 °F 36% 29.99 in 10.0 mi SE 6.9 mph - N/A   Partly Cloudy
7:53 PM 86.0 °F 85.7 °F 60.1 °F 41% 29.99 in 10.0 mi East 3.5 mph - N/A   Clear
8:53 PM 82.9 °F 83.2 °F 60.1 °F 46% 30.01 in 10.0 mi East 4.6 mph - N/A   Mostly Cloudy
9:53 PM 82.0 °F 83.0 °F 62.1 °F 51% 30.04 in 10.0 mi SE 4.6 mph - N/A   Scattered Clouds
10:53 PM 81.0 °F 83.0 °F 66.0 °F 60% 30.04 in 10.0 mi South 4.6 mph - N/A   Scattered Clouds
11:53 PM 80.1 °F 82.3 °F 66.9 °F 64% 30.04 in 10.0 mi South 5.8 mph - N/A   Clear